Theta_e
337 335 337 338 337 338 337 338 337 337 337 337 336 336 335 334 333 332 333 332 331 330 331 331 332 328 320 322 322 321 320 319 321 324 328 329 331 332 332 332 332 332 334 334 333 332 329 326 322 321 322 322 321 321 321 321 321 320 320 319 322 325 324 326 328 327 327 327 325 325 325 325 325 326 326 327 328 328 330 334 335 335 335 334 330
335 335 338 338 337 338 337 338 338 338 338 338 337 337 337 335 334 333 333 332 332 330 332 332 333 329 321 322 321 321 320 320 321 321 324 326 328 330 331 331 331 333 335 335 333 332 330 328 325 322 321 322 322 321 321 320 320 320 321 321 321 321 323 325 326 326 325 325 326 326 326 325 324 324 323 322 323 325 329 333 336 336 336 337 334
332 334 338 337 337 339 338 338 338 339 338 338 338 338 338 337 336 335 333 332 332 331 332 332 333 330 326 326 322 321 321 321 322 322 323 325 326 327 329 330 331 333 335 335 333 332 330 329 328 325 322 320 320 320 321 321 321 320 320 320 321 321 322 324 325 325 324 327 330 330 330 329 328 328 327 323 321 320 322 328 333 336 337 337 337
332 332 337 338 337 339 339 339 339 339 338 338 338 338 338 337 336 334 331 330 331 331 332 331 333 332 327 326 322 321 322 322 323 322 322 323 325 325 327 329 331 333 335 335 333 331 329 328 328 328 326 322 320 318 318 319 321 322 321 320 320 320 321 322 323 322 326 330 332 333 332 331 331 331 332 329 326 323 321 321 324 328 334 336 338
336 330 335 338 337 340 340 340 340 339 339 339 338 339 338 337 336 333 330 330 332 331 332 331 333 333 326 323 322 322 323 323 323 323 321 320 322 324 326 329 331 333 335 334 331 329 327 328 328 329 328 326 323 320 317 315 316 319 321 322 320 319 318 319 321 322 328 332 334 334 333 333 332 332 334 332 330 328 325 323 321 321 324 329 334
339 332 335 338 337 339 339 340 340 339 339 339 339 339 338 337 335 333 331 331 333 333 333 331 332 334 327 322 322 323 323 323 323 322 321 319 321 324 327 329 331 332 333 332 329 328 327 328 327 327 327 326 323 320 316 314 312 312 315 318 320 320 317 316 317 322 329 333 334 334 332 333 333 332 333 332 332 329 328 327 325 323 321 322 325
338 334 335 336 338 339 339 339 339 339 339 339 339 338 338 338 336 334 332 332 333 333 332 332 333 334 328 322 322 323 323 323 323 322 320 319 320 325 327 329 330 331 332 330 328 326 325 325 325 325 324 323 320 317 313 312 311 310 310 312 314 316 316 313 312 320 330 331 332 333 332 333 332 333 332 330 331 329 328 327 326 327 325 322 320
336 335 335 335 337 338 339 338 337 337 338 339 338 338 338 338 336 334 332 332 333 332 332 333 334 333 328 323 323 323 323 324 323 323 322 320 320 325 327 327 330 331 331 329 325 320 318 318 317 317 317 316 314 312 310 310 309 309 310 310 310 311 312 311 310 317 329 331 329 329 329 333 332 332 333 329 329 328 327 325 321 322 325 325 322
335 336 337 336 337 337 338 337 336 336 337 338 338 337 338 337 336 335 333 332 332 331 333 334 333 332 328 324 323 323 324 324 324 325 324 321 321 325 326 326 329 330 330 328 321 315 313 312 310 310 310 310 310 310 310 310 308 308 309 309 309 308 309 309 313 319 329 331 328 327 327 332 332 331 332 329 329 326 323 319 313 313 318 323 324
335 340 337 335 337 337 337 336 336 335 335 337 338 337 337 336 336 335 333 333 332 330 332 333 332 331 327 324 325 325 326 325 324 326 325 322 323 326 326 326 327 328 328 325 317 314 314 311 308 308 308 309 309 309 310 308 306 307 306 306 305 305 306 308 315 320 327 330 326 326 326 327 329 330 330 329 330 325 319 314 311 314 317 321 324
337 341 338 335 335 335 335 335 335 333 333 336 337 336 337 337 336 335 333 333 333 330 330 331 330 329 326 325 326 327 327 326 325 327 326 324 325 327 326 326 326 326 325 320 315 315 316 312 309 308 308 309 309 309 309 307 305 305 304 304 304 303 304 305 311 316 323 326 324 327 326 325 329 329 328 329 331 326 318 312 310 315 322 324 325
339 340 338 336 333 332 333 334 335 332 333 334 334 334 335 336 335 335 334 334 334 331 328 329 329 327 326 326 328 328 327 326 325 327 327 326 327 328 326 327 325 325 324 318 316 318 320 316 311 308 307 308 309 310 307 305 304 304 304 304 304 304 304 304 306 309 314 317 320 327 325 323 328 328 328 330 332 327 318 310 307 313 323 327 327
336 338 337 335 332 329 329 333 334 332 332 333 333 333 334 335 335 334 334 333 334 332 329 328 327 327 326 326 328 328 328 326 325 327 328 328 329 329 329 328 325 325 323 321 321 321 322 321 315 309 307 307 308 308 306 304 304 304 305 306 306 305 305 305 305 306 307 311 317 323 323 322 325 326 327 329 329 323 313 308 306 314 325 328 326
328 333 332 330 328 325 327 331 332 331 332 332 333 334 333 335 335 335 334 333 333 331 330 327 325 326 326 326 326 327 329 329 328 328 329 330 331 331 331 329 328 328 328 327 326 324 325 324 318 312 307 306 307 306 304 304 304 305 306 307 307 306 306 306 306 307 306 313 320 321 323 323 319 321 322 320 319 314 309 307 306 311 321 324 320
319 326 325 322 322 323 326 328 329 330 331 332 333 334 334 334 335 335 334 333 333 331 330 327 325 326 325 325 326 328 329 330 330 330 328 329 331 331 331 331 330 331 331 330 329 327 327 325 320 315 309 306 305 304 304 303 304 306 307 307 306 307 306 307 308 308 308 313 320 319 320 320 313 318 321 315 312 308 307 307 306 307 311 314 311
316 319 319 317 317 319 323 325 327 329 331 331 331 333 333 334 335 335 335 334 333 333 331 328 327 326 325 326 328 329 330 330 330 331 329 328 330 332 332 331 331 331 330 330 329 329 328 325 322 316 310 306 304 303 303 303 304 306 307 306 306 306 306 307 308 309 310 314 319 317 321 320 313 320 325 320 314 308 307 306 306 306 306 307 307
316 316 316 316 316 317 321 323 325 327 329 331 331 332 333 334 335 334 335 334 333 334 333 330 328 327 326 327 328 329 329 329 328 329 330 329 329 331 332 332 331 331 330 328 328 328 327 325 322 317 312 306 305 304 303 303 304 306 307 306 306 306 306 306 307 307 309 311 314 316 321 320 316 322 324 321 317 312 309 306 306 306 306 307 306
315 315 315 316 316 316 318 319 324 326 327 329 331 332 332 333 334 334 334 334 333 333 333 331 330 328 327 327 327 326 327 328 326 326 328 328 328 328 330 331 331 331 330 328 328 328 326 325 323 319 314 308 306 304 303 303 304 306 306 306 306 306 306 306 306 306 307 307 310 312 314 313 314 320 321 319 318 312 308 306 306 306 306 307 306
315 315 315 315 315 316 317 317 321 324 325 327 329 331 331 332 333 334 334 334 334 333 333 332 330 329 328 327 327 326 326 327 325 324 324 325 325 326 327 329 331 330 329 329 328 327 324 324 323 321 317 311 308 305 304 303 303 305 306 306 306 305 306 305 306 306 306 307 307 308 308 307 309 314 316 317 313 308 306 306 306 306 306 306 306
315 315 315 315 315 315 316 316 317 319 322 325 327 330 330 331 332 332 333 333 333 333 333 332 330 329 328 328 327 326 326 326 326 325 325 324 323 323 324 327 328 329 328 327 327 324 322 323 323 321 319 316 313 308 304 304 303 304 305 306 306 305 305 306 306 306 306 306 306 306 306 305 306 308 310 310 307 306 306 306 306 306 306 306 306
315 315 315 315 315 315 315 316 316 316 317 320 325 329 330 330 331 331 331 332 333 332 333 333 331 330 329 328 327 327 326 327 328 329 329 327 325 323 322 323 325 326 326 325 324 322 321 323 322 321 319 318 317 311 306 305 303 303 304 305 306 306 306 306 306 307 306 306 306 306 306 306 305 306 306 307 307 307 306 306 306 306 306 307 307
315 315 315 315 315 315 315 315 315 315 316 317 322 325 328 331 331 330 330 330 331 332 333 334 333 331 330 329 328 328 327 328 330 331 330 330 329 326 323 322 323 323 323 323 322 321 322 323 321 321 320 319 318 315 311 307 304 303 303 304 305 305 306 306 306 307 307 307 306 306 306 306 306 306 306 307 308 308 307 307 306 306 307 307 307
315 315 315 315 315 314 315 315 315 315 315 316 319 320 324 331 332 331 331 330 329 330 331 332 332 331 330 330 330 329 329 330 331 331 330 328 328 327 325 324 323 322 323 323 321 321 323 324 323 321 321 321 320 319 316 313 309 305 303 303 303 304 305 306 305 306 307 307 307 307 306 306 306 306 306 306 307 307 307 307 307 307 307 307 308
314 314 315 315 315 315 314 314 315 315 315 316 317 318 319 326 331 331 331 330 329 328 329 330 331 331 331 331 331 331 331 330 330 330 329 327 327 327 326 324 324 325 325 324 322 323 325 325 324 321 321 323 324 322 320 319 316 311 307 304 303 303 304 305 305 305 306 307 307 307 307 307 306 306 306 306 306 306 306 307 308 307 306 307 308
313 314 314 315 315 315 315 315 315 315 316 316 317 318 316 320 328 330 330 330 330 330 330 330 330 331 332 332 332 332 332 331 330 330 329 328 328 328 326 325 326 327 326 324 324 325 327 327 324 322 323 324 326 325 324 323 321 318 314 310 307 305 303 303 304 305 305 305 306 307 307 307 306 306 306 306 306 306 306 306 307 308 308 309 309
313 314 313 314 314 314 314 314 314 314 315 315 317 318 317 321 326 329 331 331 332 332 331 330 330 331 332 332 331 331 331 331 331 330 330 330 330 329 328 327 329 329 328 326 326 327 328 327 326 325 326 326 326 326 325 324 324 323 321 317 313 310 308 304 302 303 304 304 305 305 306 306 306 306 306 306 306 305 306 305 306 309 311 313 315
313 313 313 313 313 313 313 313 313 313 314 316 318 319 323 326 326 329 330 330 331 330 329 330 331 332 332 331 330 331 331 331 330 331 330 330 330 330 330 330 330 330 329 328 328 328 328 328 327 327 327 327 326 326 325 324 324 323 323 321 317 315 313 310 306 303 302 303 303 304 304 304 305 305 305 305 305 305 305 305 305 307 310 315 320
312 313 313 313 313 313 313 313 313 313 313 315 319 322 326 328 328 330 330 329 329 328 328 330 330 331 331 331 331 331 330 330 330 330 330 329 330 330 330 330 330 330 329 329 328 328 328 327 327 327 327 326 326 325 324 324 324 323 322 321 320 317 315 314 312 308 305 303 302 302 303 303 303 304 304 305 305 305 305 305 305 305 306 311 318
312 312 312 312 312 313 313 313 313 313 314 317 321 325 328 328 328 329 329 328 328 328 329 330 330 330 330 331 332 331 330 330 330 329 329 330 330 330 330 330 330 330 329 329 329 328 327 326 325 326 326 325 325 324 324 324 324 323 322 321 320 319 317 316 315 313 311 308 305 302 302 302 302 302 303 303 303 304 304 304 304 304 304 305 311
312 312 312 312 312 312 312 313 314 313 314 319 324 326 328 327 327 328 328 328 328 328 328 328 327 327 329 332 332 331 331 332 331 329 328 329 330 329 329 330 330 330 329 328 327 326 326 326 325 325 326 325 324 324 323 324 324 323 322 322 320 318 317 317 316 316 314 313 310 307 304 302 301 301 302 302 302 302 303 303 303 303 304 303 304
312 312 311 312 312 312 313 313 314 314 315 320 324 326 326 326 326 327 327 327 327 328 328 327 325 324 327 328 328 328 329 330 329 327 327 329 330 329 329 331 330 330 329 328 327 326 326 326 325 325 326 325 324 323 322 323 324 323 322 321 320 318 318 317 317 317 316 315 315 313 310 307 304 302 301 301 301 301 302 302 302 302 302 303 303
311 311 311 312 312 312 313 313 314 315 316 320 325 326 327 327 327 327 326 326 326 326 326 327 324 324 326 327 327 328 328 328 327 327 328 330 331 330 330 330 329 328 328 327 327 327 325 325 324 324 324 325 325 324 323 322 323 323 322 320 319 319 318 318 318 317 317 316 316 316 315 314 312 309 306 303 301 300 300 301 301 301 302 302 302
311 311 311 311 312 312 314 314 314 315 317 321 324 325 328 328 327 327 325 323 322 322 324 325 324 325 326 327 328 328 328 329 329 329 330 330 330 329 329 329 328 327 326 325 324 324 323 323 323 323 322 324 325 324 323 323 322 321 320 319 320 320 318 318 318 317 317 317 316 316 316 315 315 314 312 310 307 304 301 300 300 300 300 301 301
310 310 311 311 312 313 315 315 315 316 318 323 324 324 325 325 325 327 325 323 323 324 324 324 323 324 325 325 325 325 327 328 329 328 328 328 328 328 328 327 326 325 323 323 322 323 323 324 323 323 322 323 324 324 323 322 321 319 319 320 320 319 319 319 318 318 317 317 316 316 315 315 314 314 314 314 312 309 306 302 300 299 299 299 300
310 310 310 311 312 313 314 316 319 320 319 321 324 326 326 325 325 326 324 324 324 324 324 323 322 322 322 322 323 324 326 327 327 327 327 327 326 325 325 324 324 323 322 322 322 322 322 322 322 323 323 323 323 322 321 320 319 320 320 321 320 319 319 319 318 318 317 316 316 315 314 313 313 312 312 312 312 311 309 306 304 301 300 299 299
310 310 310 312 313 315 316 317 320 322 322 321 322 325 327 327 326 325 323 322 322 322 322 321 320 320 321 322 323 324 325 325 326 325 325 324 323 323 322 322 322 322 321 321 322 322 322 322 322 322 322 322 321 321 320 319 320 320 320 320 320 318 318 318 318 317 316 314 313 312 311 311 310 310 309 308 308 309 308 307 305 303 302 300 299
310 310 311 312 313 316 318 319 320 321 322 322 321 321 323 324 324 322 321 321 320 320 321 320 319 319 320 321 322 324 324 325 325 324 324 324 323 323 323 323 323 323 322 322 323 323 322 322 322 322 321 321 320 320 319 319 319 319 319 319 319 318 317 316 315 313 312 311 310 309 309 308 308 307 307 307 306 306 306 306 305 304 303 302 301
310 311 312 313 315 318 319 319 319 319 320 321 320 320 320 321 321 320 320 320 319 320 320 320 319 319 320 321 321 322 323 323 324 323 323 324 323 323 323 323 323 323 322 323 323 322 321 321 320 320 320 320 320 319 319 318 318 318 318 316 316 315 313 311 310 309 308 307 307 307 307 306 306 306 306 306 305 305 306 306 306 306 305 305 304
311 313 314 314 317 319 319 318 319 320 320 320 319 319 319 319 319 319 319 318 317 318 319 319 318 319 320 320 320 322 322 322 322 322 322 322 322 322 322 322 322 322 321 321 320 320 320 319 319 319 319 318 317 317 315 315 315 316 314 313 312 310 308 306 306 305 305 305 305 305 304 303 303 302 301 301 301 301 301 301 301 302 303 303 304
312 314 316 316 317 319 318 317 318 317 318 318 318 318 318 318 318 317 317 316 316 316 316 317 317 318 319 319 320 320 320 320 320 320 320 319 318 318 318 318 318 317 316 316 316 316 317 317 316 315 313 311 310 309 308 309 310 311 310 310 310 308 305 304 304 303 303 302 302 301 299 297 297 297 296 295 295 296 295 295 296 296 297 297 298
311 313 314 315 316 316 316 315 316 316 316 316 316 316 316 316 315 315 315 314 314 314 313 314 315 316 318 318 317 315 314 314 314 314 313 312 312 312 311 310 309 309 308 308 309 309 310 310 309 307 306 305 304 303 303 304 305 307 308 309 309 307 304 303 303 302 302 301 298 296 295 294 294 293 293 293 293 293 293 293 293 293 293 294 294
310 311 313 314 314 314 315 314 314 315 315 314 314 314 313 312 312 313 313 312 312 311 311 312 313 314 314 312 310 308 307 307 307 307 306 306 306 306 305 305 305 304 304 304 304 304 304 303 303 303 302 301 301 300 300 301 302 306 308 308 308 306 303 302 302 301 301 301 298 295 295 293 292 292 292 292 292 292 292 292 292 292 292 292 292
309 311 312 313 313 313 313 312 312 312 312 312 311 310 310 311 310 310 310 310 309 309 308 308 308 308 307 306 305 305 304 304 304 304 304 304 303 303 303 302 302 302 301 301 301 300 300 299 299 299 299 298 298 297 298 298 299 304 308 308 307 306 304 300 299 299 298 299 298 294 294 293 292 292 292 292 292 292 292 292 291 291 291 292 292
309 311 312 312 313 313 313 312 312 311 311 311 310 310 310 310 310 309 309 308 306 306 305 305 305 305 304 304 303 303 302 302 302 302 301 301 301 300 300 300 299 299 299 299 298 298 297 297 296 296 296 296 296 296 296 295 296 299 303 306 305 304 301 296 296 299 297 296 295 292 292 292 291 291 292 292 292 291 291 291 291 291 291 291 291
309 312 313 313 313 313 313 313 313 312 312 312 311 310 310 309 308 307 307 305 305 304 304 304 303 303 302 302 301 301 301 301 300 300 300 299 299 299 298 298 298 297 297 297 297 296 296 296 295 295 295 295 295 294 294 294 294 295 296 300 299 296 294 291 293 297 296 293 292 291 291 291 290 291 291 290 291 291 291 291 291 291 291 291 291
309 313 314 313 314 314 313 313 313 313 312 311 310 309 308 306 306 305 305 304 304 303 303 302 302 301 301 301 300 300 299 299 299 298 298 298 298 297 297 297 296 296 296 296 295 295 295 294 294 294 294 293 293 293 293 293 293 293 293 293 293 291 291 290 291 292 292 291 291 290 290 290 290 290 290 290 290 290 290 290 290 290 290 290 291
310 313 314 313 314 313 312 312 313 312 310 309 308 307 305 305 305 304 304 304 303 302 302 301 301 301 300 300 299 299 298 298 298 297 297 297 296 296 296 296 296 295 295 294 295 294 294 293 293 293 293 292 292 292 292 292 291 292 291 291 291 290 290 290 289 289 290 290 290 290 289 289 289 289 289 289 289 289 290 290 290 290 290 290 290
310 312 313 313 313 312 311 311 311 309 307 307 306 305 304 304 304 303 303 302 302 302 301 301 300 300 299 299 298 298 298 297 297 297 296 296 296 295 295 295 295 294 294 294 294 293 293 292 292 292 292 292 292 291 291 291 291 290 290 290 290 289 289 289 289 288 288 288 289 289 289 289 289 289 289 289 289 289 289 289 289 289 289 289 289
309 311 312 312 311 310 310 310 308 307 306 305 305 304 304 303 302 302 302 301 301 301 300 300 300 299 299 298 297 297 297 297 296 296 296 295 295 295 295 294 294 294 293 293 293 292 292 292 291 291 291 291 290 290 290 290 289 289 289 289 289 289 289 288 288 288 288 288 288 288 288 288 288 288 288 288 288 288 289 289 289 289 289 289 288
309 311 312 312 311 309 308 307 306 305 305 304 303 303 302 302 301 301 301 301 300 300 300 299 299 298 298 298 297 296 296 296 296 295 295 295 294 294 294 294 293 293 293 292 292 292 291 291 291 290 290 290 289 289 289 289 288 288 288 288 288 288 288 288 288 287 287 287 287 287 287 287 288 288 288 288 288 288 288 288 288 288 288 288 288
310 311 312 311 309 307 306 305 304 304 303 303 302 301 301 301 300 300 300 300 300 300 299 299 298 298 297 297 296 296 296 295 295 295 294 294 294 294 293 293 293 292 292 292 291 291 291 290 290 289 289 289 289 288 288 288 288 288 288 288 288 288 287 287 287 287 287 286 286 286 286 286 287 287 287 288 288 288 288 287 288 288 287 287 287
Wind_Speed
5 6 12 12 10 10 9 8 8 8 7 7 6 6 6 5 5 5 6 6 7 8 9 9 10 12 12 12 12 12 13 13 13 12 12 11 10 10 9 9 11 13 12 12 12 12 13 14 14 13 12 11 11 11 10 10 10 10 10 9 8 7 7 8 8 9 11 12 12 12 12 12 11 10 9 9 9 7 7 8 9 9 9 9 7
6 7 12 12 10 9 9 9 8 8 7 6 5 4 5 6 5 5 5 5 6 8 8 8 9 10 11 12 12 12 12 12 12 11 11 10 10 9 8 9 10 12 11 12 13 12 13 13 13 13 12 11 10 10 9 9 9 10 10 10 10 9 9 9 10 10 11 11 11 11 12 11 10 10 9 9 9 8 7 8 8 9 9 9 7
7 7 12 11 10 9 9 9 8 8 6 6 5 4 4 5 5 4 4 5 6 7 7 6 7 8 10 11 12 12 12 11 11 11 11 10 9 8 8 8 9 9 9 11 12 12 13 12 12 11 11 10 9 9 8 8 9 9 9 10 9 10 10 10 10 10 10 10 9 9 11 11 10 10 9 8 8 7 7 7 7 8 9 9 7
7 6 12 12 10 9 9 9 8 7 6 6 5 4 4 4 4 4 4 4 5 5 6 6 6 7 8 9 11 11 11 11 11 11 11 10 9 8 7 7 7 7 7 9 10 11 12 12 11 9 9 9 9 9 8 7 7 7 7 8 9 9 9 10 10 10 10 10 9 9 10 9 9 10 9 8 8 7 6 5 5 6 6 8 8
8 4 11 13 11 9 8 9 8 7 6 5 6 4 3 4 4 4 3 4 4 4 5 5 5 6 7 9 10 10 10 10 11 11 12 10 8 7 7 7 6 6 6 7 9 11 11 11 10 9 8 8 8 9 8 7 6 5 5 5 7 8 8 9 9 9 9 10 10 9 8 8 8 8 9 8 8 8 6 5 5 4 4 4 6
9 2 8 13 11 10 7 7 7 6 6 5 5 4 3 3 3 3 3 4 4 4 4 4 5 6 6 8 9 9 9 9 10 10 11 9 8 7 6 6 5 5 6 7 9 11 11 10 10 9 8 8 8 8 8 7 6 5 4 4 4 5 6 7 7 7 8 9 9 7 6 7 7 7 7 7 7 8 7 6 5 4 4 3 3
9 2 5 12 10 9 7 6 7 6 5 4 4 3 3 2 3 3 3 3 3 3 4 3 5 6 6 8 8 8 8 8 9 10 10 8 7 7 5 5 4 4 5 7 9 10 10 9 10 10 9 8 8 9 8 7 6 5 4 4 4 3 4 5 6 6 6 7 6 4 5 6 6 6 6 6 7 8 8 7 6 6 5 4 4
10 5 4 10 9 7 8 6 6 6 5 4 4 3 2 2 2 2 3 3 3 3 3 3 4 5 6 8 8 7 7 7 9 10 10 9 7 6 4 3 3 4 6 7 9 10 11 10 11 11 11 10 10 9 8 7 7 6 5 4 4 3 3 4 5 6 7 6 4 3 3 5 5 6 6 7 8 8 7 6 6 7 6 5 5
10 7 4 8 8 7 8 7 5 6 5 5 4 3 2 2 1 2 3 3 4 4 3 4 4 5 7 8 8 7 7 8 9 10 10 9 7 6 3 2 3 4 6 8 11 13 13 13 13 13 12 11 10 9 8 8 7 6 6 4 3 3 4 5 5 7 8 5 3 3 3 4 5 6 7 8 9 7 6 7 8 7 5 6 5
11 7 6 6 6 6 8 9 6 6 6 5 4 3 3 1 1 2 3 2 3 4 3 3 3 5 7 7 7 7 7 8 9 10 10 9 8 6 4 2 3 5 7 9 12 13 15 16 16 14 12 11 9 8 7 7 7 7 6 5 4 4 4 6 6 7 8 4 3 4 2 2 4 5 6 7 8 6 6 9 9 7 5 6 6
12 8 8 6 6 6 8 11 9 6 6 6 5 4 3 1 0 1 2 2 2 3 3 3 3 4 6 7 7 7 7 8 8 8 9 9 8 6 5 3 4 6 7 9 12 13 16 17 17 16 13 12 9 7 6 6 6 6 7 7 6 5 4 4 4 4 6 5 5 4 1 0 2 4 5 5 5 4 6 9 8 7 6 6 6
12 9 9 7 7 7 8 12 11 8 7 7 6 5 4 3 1 0 1 1 1 2 3 2 2 3 5 6 7 6 6 7 7 7 8 8 7 6 5 4 5 6 8 10 12 14 16 18 18 17 15 12 10 7 6 5 5 6 7 7 7 6 5 3 2 3 4 4 6 4 1 1 0 2 2 2 3 6 9 9 6 5 6 6 5
13 10 9 9 9 9 9 12 13 10 9 8 8 7 6 5 3 2 2 1 1 1 2 1 2 3 5 6 5 5 5 6 6 5 6 7 6 5 4 4 5 8 10 11 13 14 16 19 19 18 16 13 11 7 6 5 4 5 6 7 7 6 6 4 4 4 3 5 8 6 2 1 2 3 2 2 4 7 8 6 4 3 4 3 3
13 12 10 9 9 10 10 13 13 11 10 9 9 8 7 7 5 4 3 3 2 0 1 2 1 2 3 4 4 3 3 3 3 4 5 5 4 3 3 4 6 8 10 11 12 13 16 19 19 19 17 15 11 8 5 4 3 5 6 6 6 6 5 5 6 5 5 9 8 5 2 1 2 3 4 5 6 6 6 4 3 1 1 2 4
11 13 11 8 8 10 11 12 12 12 11 11 10 9 8 8 6 6 5 4 3 2 2 2 1 1 2 3 2 1 1 1 2 3 4 4 3 1 2 4 7 8 9 10 12 13 16 18 18 19 17 15 12 8 5 4 3 4 5 5 5 4 3 3 5 5 6 8 5 4 2 1 0 1 4 5 4 3 4 4 3 3 4 6 8
8 10 10 8 7 9 11 12 12 12 11 11 11 10 10 9 8 7 6 5 4 4 4 3 2 1 1 1 1 1 1 1 1 2 3 3 3 2 2 4 6 7 8 10 11 12 14 16 18 18 17 15 12 8 6 3 2 3 4 4 3 3 2 1 1 5 6 5 4 3 2 1 1 4 4 3 3 3 4 4 4 4 5 7 8
7 7 6 7 6 8 11 12 13 13 12 12 12 11 10 10 9 9 8 6 6 5 4 4 3 2 2 2 2 2 1 1 2 3 3 3 3 3 4 5 5 6 7 10 10 11 12 15 16 16 16 14 12 9 6 4 3 2 2 2 2 3 2 3 2 3 4 5 4 2 2 2 1 3 2 3 4 4 4 3 4 5 6 7 7
7 6 5 6 6 7 9 11 12 13 14 13 13 12 11 11 10 9 9 8 7 6 5 4 4 3 3 3 3 3 3 3 3 3 4 4 5 5 5 5 5 6 7 9 10 11 12 14 16 15 15 13 11 10 7 6 4 2 2 2 2 2 3 3 3 1 2 3 2 1 1 4 3 1 1 3 3 4 4 4 4 5 6 7 7
7 7 7 7 7 7 8 9 10 11 13 13 13 13 13 13 11 10 10 9 8 7 7 6 5 4 4 4 4 3 4 4 4 4 5 5 6 6 7 6 6 7 8 9 11 14 14 14 15 15 14 13 11 9 7 6 5 4 2 2 2 2 3 4 4 4 4 5 4 3 1 2 3 3 3 4 3 3 4 4 4 5 5 6 7
8 7 7 8 8 8 7 8 8 9 11 12 13 13 13 14 13 13 11 10 9 9 8 7 7 6 5 5 5 5 5 5 6 5 5 6 7 7 7 8 8 9 10 11 13 15 14 13 14 14 12 12 12 10 7 5 5 5 4 3 3 3 4 4 4 4 5 5 5 4 3 3 5 5 6 5 4 3 4 4 4 4 5 6 6
9 9 8 8 7 8 8 8 8 8 9 9 10 11 12 13 14 14 13 12 11 10 9 7 7 6 5 6 6 6 6 6 7 6 6 6 6 6 7 8 10 11 11 12 14 15 13 12 13 13 11 10 11 11 9 6 4 5 6 5 5 5 5 4 4 5 5 5 5 5 5 5 6 7 7 7 5 4 3 4 4 4 5 5 5
8 10 10 9 8 7 7 7 8 8 8 8 9 9 10 12 12 13 14 13 12 11 9 8 7 6 5 6 6 6 6 6 6 6 6 6 6 6 7 8 10 11 12 12 13 13 11 11 13 11 9 9 10 11 11 9 6 5 6 6 6 6 6 5 5 5 5 5 6 6 6 6 7 8 8 9 8 6 4 4 4 4 5 5 5
8 9 10 11 11 9 8 8 8 8 8 8 9 9 8 10 11 11 12 13 13 13 11 10 9 8 6 6 5 5 6 7 7 7 7 8 8 8 8 8 10 11 11 11 10 9 9 11 12 10 8 10 12 12 13 12 10 8 6 6 7 7 8 7 6 5 6 6 6 6 6 7 7 8 9 9 10 9 7 5 5 5 5 5 5
10 10 10 10 11 11 11 11 9 9 9 9 9 9 9 10 11 11 11 11 12 12 12 11 10 9 7 6 6 5 6 7 8 8 9 9 9 9 9 9 9 9 9 8 8 8 9 10 11 10 10 12 14 14 14 14 14 12 10 8 8 9 9 9 8 7 7 7 7 7 7 7 8 8 8 9 9 9 9 8 6 5 4 5 4
10 10 10 10 10 11 11 11 11 11 10 10 10 10 9 10 12 13 12 12 11 11 12 12 12 11 9 8 7 7 7 7 7 8 8 8 8 8 8 8 8 7 6 7 7 7 7 7 10 13 14 13 14 14 14 15 15 15 14 12 11 10 10 11 11 9 8 8 8 8 8 8 8 9 9 9 9 8 8 9 8 6 4 4 4
8 9 10 10 10 10 10 11 12 13 12 12 12 11 9 9 12 13 13 14 13 12 12 13 14 13 12 10 9 8 8 6 7 7 6 6 6 7 7 7 7 6 5 6 5 6 6 6 10 12 11 11 12 12 13 13 14 14 15 14 13 12 11 11 12 12 11 10 10 9 9 9 9 9 10 10 9 9 8 8 8 7 5 6 7
6 7 8 8 9 9 9 10 11 12 13 13 12 11 10 9 10 11 13 15 15 14 14 15 15 15 13 12 11 11 9 8 7 6 6 6 6 6 7 7 7 6 5 5 4 5 6 7 9 8 8 9 10 10 11 12 13 13 14 14 13 11 11 10 10 12 12 12 11 11 10 10 10 10 10 11 10 10 10 9 9 8 5 5 7
6 7 7 8 8 8 8 9 10 10 10 12 12 10 10 10 11 13 14 16 17 17 17 15 16 16 14 12 12 11 10 9 9 8 8 8 7 6 7 6 6 5 5 5 6 7 8 9 9 7 9 11 11 11 12 13 12 12 12 13 12 11 10 9 9 9 11 11 11 12 12 11 11 11 11 12 12 11 11 11 11 11 8 4 2
6 7 7 7 8 8 9 9 10 10 10 12 12 12 13 13 14 16 15 17 18 17 16 14 13 14 14 12 11 12 11 9 10 11 11 11 9 7 7 7 8 8 8 9 9 9 10 10 10 9 10 11 11 12 12 11 11 11 12 12 12 11 10 9 8 8 8 9 9 10 11 12 12 12 12 12 12 12 12 12 13 12 12 9 4
6 7 8 8 8 8 9 9 9 10 13 16 16 16 17 16 16 17 15 17 18 17 17 14 11 12 12 10 10 12 12 11 12 12 12 12 12 12 11 11 11 11 11 11 10 10 10 10 11 10 8 9 10 10 9 8 9 10 12 12 12 12 11 10 9 9 8 8 8 8 9 10 12 12 12 12 12 12 12 12 13 13 13 12 9
6 7 8 8 8 8 8 8 8 11 15 18 19 19 19 17 16 17 16 17 17 17 16 13 11 10 11 11 11 11 11 11 12 13 13 13 14 14 13 12 9 8 9 11 11 10 10 10 10 8 6 8 9 6 6 6 9 12 11 11 12 12 12 11 10 9 9 9 9 9 8 9 10 11 12 13 13 13 13 13 13 13 13 12 12
7 7 7 8 8 7 6 7 9 12 15 17 19 19 18 17 17 17 17 16 15 14 14 12 11 11 11 11 11 11 10 10 11 11 11 10 11 10 9 9 7 6 8 10 10 10 11 11 9 8 6 8 9 6 5 6 10 13 11 10 11 11 11 12 11 11 11 10 10 11 11 11 11 11 11 12 13 14 14 14 14 14 14 13 12
7 7 7 8 7 6 6 7 9 12 13 15 17 18 19 18 17 16 16 16 13 12 12 12 12 11 11 12 12 12 12 10 9 8 8 6 5 5 6 6 6 7 7 8 8 9 10 10 9 10 7 6 8 7 7 11 13 13 12 12 11 10 10 11 12 13 13 13 12 12 13 13 13 13 13 13 13 14 14 14 14 15 15 14 14
8 7 7 7 7 6 6 6 8 10 12 14 15 15 17 17 15 15 15 13 11 10 10 10 11 10 10 11 10 9 9 9 8 8 9 6 3 3 4 5 5 6 6 7 7 7 7 7 8 10 8 7 9 10 12 15 14 13 13 14 12 9 11 12 13 15 15 15 15 15 15 14 14 14 14 14 13 13 13 14 14 14 15 14 14
8 8 7 6 5 5 6 7 8 8 9 12 14 12 12 13 13 15 14 11 10 9 8 7 7 6 5 5 5 6 7 7 7 7 7 6 4 5 5 5 4 5 6 7 8 8 6 7 8 9 9 10 11 13 13 12 11 11 12 12 10 9 11 13 15 17 17 16 16 16 14 14 13 13 13 13 12 12 12 12 13 13 14 14 14
8 8 7 6 5 5 5 7 10 10 9 10 13 13 13 13 13 13 11 10 10 8 7 5 5 5 4 3 3 5 7 7 7 6 6 6 6 6 5 4 3 5 6 7 6 5 4 5 6 8 9 10 11 11 11 10 10 10 8 8 8 9 11 14 16 17 16 15 14 13 12 12 11 11 11 11 11 11 11 12 12 12 12 12 13
8 7 7 6 6 6 5 5 7 9 11 11 12 13 14 13 12 10 9 8 7 6 6 5 5 4 4 4 4 4 4 5 6 5 5 5 5 5 4 3 3 5 5 4 4 3 3 3 5 6 7 8 9 9 9 9 9 8 7 8 9 10 13 14 14 14 13 11 11 10 9 9 10 10 10 11 11 12 12 12 13 13 13 13 13
8 7 7 7 6 7 8 7 6 7 9 9 9 10 10 10 9 8 7 7 7 7 7 5 4 4 5 4 4 4 3 4 4 4 4 4 3 3 3 2 2 3 3 3 3 3 2 3 4 5 6 8 9 10 10 9 8 7 6 8 8 10 11 10 9 8 8 8 8 8 8 9 9 10 10 11 12 12 13 13 14 14 14 14 14
8 8 8 9 10 11 10 10 11 10 10 9 8 9 10 9 9 9 9 8 8 9 8 7 6 5 4 4 4 4 4 3 3 3 3 3 3 3 2 2 2 3 3 3 3 3 3 3 4 5 7 8 10 11 10 8 7 4 3 4 5 7 7 6 6 7 7 7 7 8 9 10 10 10 11 11 12 12 13 13 13 13 13 14 14
10 12 12 12 13 13 12 12 12 10 10 10 10 11 11 11 11 10 10 8 8 9 9 9 8 8 7 6 6 5 5 5 5 5 4 4 4 3 3 3 2 3 3 4 4 4 4 4 4 5 5 6 7 7 7 6 4 2 4 2 3 5 7 7 9 8 7 7 9 9 11 12 12 12 13 13 13 13 13 14 14 14 13 13 13
12 14 15 15 14 13 12 12 13 12 10 11 11 12 12 12 11 11 10 9 9 8 8 8 9 9 8 7 7 6 6 6 5 5 4 3 3 3 3 2 2 1 1 1 1 1 2 2 2 3 4 5 5 7 8 8 6 7 8 3 0 4 7 9 11 9 7 8 10 10 10 12 13 14 14 14 14 14 15 16 16 16 15 15 14
13 14 15 14 14 13 12 12 15 15 14 14 13 11 11 10 9 9 9 11 11 10 11 12 12 12 11 10 10 10 11 11 11 10 9 9 8 8 8 7 7 7 7 7 7 6 5 6 6 5 6 7 8 10 10 10 9 9 10 6 2 3 6 10 11 10 8 9 11 11 10 13 15 15 15 15 15 16 16 17 17 18 17 17 17
14 14 15 14 14 14 13 12 13 13 13 12 10 9 10 10 10 11 13 15 16 16 16 17 17 16 16 15 15 14 14 14 14 12 11 11 10 10 10 9 9 9 9 9 9 9 8 8 8 8 8 9 10 11 12 12 11 8 9 7 3 2 3 6 9 7 8 10 13 15 14 15 18 18 17 17 17 17 18 18 19 19 19 19 18
16 16 16 16 15 15 14 12 12 12 11 10 10 11 13 13 14 16 18 19 20 19 19 20 19 18 17 17 16 15 14 13 13 12 11 11 10 10 10 10 10 10 9 9 9 9 10 9 10 10 10 10 11 12 13 13 12 9 6 6 3 2 2 6 7 3 6 9 12 17 17 17 19 21 21 20 21 20 20 20 20 20 20 19 19
18 19 18 18 17 17 15 15 14 13 12 12 13 15 16 18 20 21 22 22 22 21 20 20 19 17 16 15 15 14 12 12 12 11 10 10 10 10 10 9 9 9 8 8 9 10 10 10 11 11 11 12 13 13 13 13 13 11 8 5 2 3 4 10 8 2 6 9 11 16 17 18 21 22 23 23 23 23 23 23 22 22 22 21 21
20 20 20 19 19 18 17 17 16 15 15 16 17 18 19 21 23 24 24 23 23 21 19 19 17 15 14 13 13 12 11 10 10 9 9 9 9 9 9 9 9 9 9 9 10 10 10 11 11 11 12 13 12 12 13 14 13 13 12 9 7 7 8 11 11 9 11 12 13 16 17 20 23 23 23 24 25 25 25 26 25 24 23 23 23
22 22 21 21 21 20 20 19 18 18 19 20 21 21 23 23 23 23 22 21 21 20 18 16 15 13 13 12 11 10 10 9 8 8 8 8 8 8 8 9 9 9 10 9 9 10 11 11 11 11 12 12 12 13 14 13 13 13 13 12 10 10 10 11 13 15 17 18 18 17 18 22 25 25 25 26 27 28 28 27 26 25 24 24 24
23 24 23 23 23 22 21 20 20 21 23 24 25 25 25 24 23 21 20 18 17 18 17 15 13 12 11 11 9 9 9 8 7 7 7 7 7 7 8 8 8 9 9 9 10 11 11 11 11 11 12 12 13 13 13 13 13 13 12 12 12 11 11 11 12 14 17 22 22 20 21 24 24 25 26 27 27 28 28 27 27 26 25 25 26
25 26 25 24 24 23 23 22 23 23 25 26 26 26 24 22 21 19 19 18 16 15 15 13 12 11 10 9 9 8 8 7 6 6 6 6 6 7 7 7 8 8 9 9 10 10 10 11 11 11 12 12 13 13 13 14 14 13 13 13 12 11 11 11 13 14 16 20 22 23 25 27 26 25 25 26 27 27 26 26 26 25 26 27 29
26 27 26 25 24 25 25 25 26 26 26 25 25 24 22 21 19 17 16 16 15 14 14 13 12 10 9 9 8 7 7 6 6 6 5 6 6 6 7 7 8 8 9 9 9 9 10 11 11 12 13 13 13 13 14 14 14 14 14 14 14 14 14 14 14 15 16 17 20 23 25 27 29 28 25 26 27 26 26 26 25 24 26 29 29
27 27 27 26 26 27 28 28 28 28 27 25 24 23 22 20 18 16 14 14 14 13 12 12 11 10 9 8 8 7 6 6 5 5 5 5 6 6 6 7 8 8 9 9 9 10 10 11 12 12 13 13 13 14 14 14 14 14 14 15 16 15 16 16 16 16 17 18 20 23 25 25 28 29 28 28 28 26 26 26 23 22 26 27 26
Wind_Direction
179 174 168 169 160 159 147 145 142 135 131 129 119 116 113 105 93 79 69 61 49 41 43 44 52 62 75 82 81 81 76 72 71 71 70 66 59 53 46 36 28 28 31 37 40 42 39 36 37 42 49 54 60 66 71 73 73 73 74 80 86 82 73 69 64 60 62 65 64 61 56 51 46 45 52 59 60 57 50 43 37 35 36 38 40
205 183 167 171 164 163 152 155 148 137 136 130 121 112 104 97 91 80 66 60 46 39 46 48 53 68 80 86 85 85 82 74 70 69 67 64 60 55 46 37 34 36 37 39 42 41 38 33 32 36 42 47 50 53 58 64 67 69 71 74 79 81 79 76 73 71 67 66 65 64 56 46 42 41 46 55 61 59 53 49 45 44 44 39 31
220 188 170 175 169 168 155 160 155 145 146 138 132 121 105 86 77 69 59 55 40 34 43 49 56 76 87 89 91 90 86 78 71 64 59 59 59 56 49 43 40 38 37 38 38 35 30 25 22 26 34 40 42 42 44 48 55 59 64 67 72 76 78 79 76 71 65 63 61 62 53 38 36 40 40 44 53 56 53 51 48 50 48 43 38
207 192 173 178 173 175 159 160 161 156 153 145 142 130 115 86 79 72 60 52 38 34 41 49 63 83 93 92 93 88 82 75 66 56 48 49 55 57 53 47 40 40 36 32 30 23 19 16 12 13 20 27 28 29 31 34 41 47 56 63 69 71 74 77 75 68 62 58 56 54 43 33 35 40 43 42 44 45 42 40 38 43 47 49 46
181 183 169 178 175 179 167 164 163 162 160 149 145 137 125 99 88 80 62 53 45 40 42 56 78 92 99 96 92 83 77 68 57 46 37 34 44 56 56 50 47 45 30 20 17 10 8 6 4 5 6 10 13 13 15 19 25 34 43 56 68 69 71 73 75 71 65 59 51 42 29 28 33 38 46 44 40 37 29 23 17 11 15 36 43
168 155 163 180 179 179 173 169 166 162 160 152 147 139 129 107 87 74 53 51 51 42 39 57 83 94 100 96 91 82 73 62 48 37 30 28 40 58 59 52 46 38 19 5 6 6 4 0 359 360 358 358 0 2 1 4 9 17 28 42 61 68 70 71 77 78 73 66 52 32 26 27 30 37 40 33 28 25 17 8 1 347 338 341 360
164 158 160 178 181 182 178 171 168 170 165 158 155 145 139 114 76 56 42 47 47 36 38 58 82 91 98 97 93 84 72 60 43 30 29 32 47 65 62 57 41 23 12 357 2 9 8 358 352 349 346 347 348 352 355 359 3 8 16 28 43 55 66 72 80 88 83 73 59 26 32 27 23 35 24 16 16 15 8 359 357 344 323 317 318
163 154 145 172 178 184 186 178 168 178 177 167 166 162 156 127 78 47 31 41 48 46 57 73 83 86 92 100 96 87 74 54 38 33 36 40 55 67 59 57 33 9 4 355 4 9 4 357 350 345 340 340 343 347 354 360 5 11 18 26 37 47 62 77 87 94 79 53 38 14 32 28 19 30 16 7 8 9 4 353 355 343 325 316 307
155 144 155 174 176 183 192 193 175 176 188 184 174 176 173 141 72 32 28 49 65 61 62 66 79 83 86 99 95 83 67 46 38 40 43 46 60 68 54 40 7 5 6 357 3 3 1 359 357 353 346 343 345 350 357 3 11 19 26 33 45 64 80 92 104 105 89 52 27 19 8 20 15 22 16 7 4 7 11 358 352 346 335 328 323
134 142 179 174 178 188 196 200 191 176 193 199 181 184 185 156 43 22 28 53 70 63 61 55 67 80 83 90 87 70 53 42 42 46 47 51 62 64 48 20 345 355 359 354 0 2 2 3 3 2 358 354 353 355 2 10 23 31 36 43 48 71 96 115 129 127 119 133 110 54 360 360 1 16 17 10 11 11 16 2 356 6 12 357 353
129 160 190 180 196 200 201 200 198 189 197 202 192 199 200 191 22 21 32 60 71 59 63 64 59 75 84 81 69 57 46 38 41 45 48 55 62 57 39 19 352 348 349 355 1 2 2 5 8 7 5 2 358 358 8 23 41 51 55 56 58 74 97 131 148 147 144 160 139 93 5 314 7 29 25 17 20 1 358 357 360 14 21 15 4
138 177 198 200 209 202 199 195 196 195 197 202 199 207 214 214 208 295 20 85 90 50 53 76 65 64 78 74 62 54 45 34 28 36 45 54 65 57 38 16 355 348 349 355 357 359 3 5 10 10 7 4 1 359 10 30 54 70 72 70 70 79 87 105 99 125 149 155 144 137 270 216 80 48 51 40 1 335 340 349 6 16 20 17 356
152 173 202 215 217 208 193 187 192 192 192 199 203 205 213 220 208 210 219 207 197 54 35 56 70 64 66 65 62 52 43 34 22 26 37 48 64 58 38 11 353 351 351 353 354 358 3 4 8 10 8 5 2 0 13 30 51 71 73 71 72 75 83 84 71 91 112 104 131 161 213 212 222 238 233 242 288 315 324 336 8 36 57 39 339
164 172 201 215 214 207 188 184 189 187 188 195 201 202 209 219 210 205 209 214 228 270 332 334 21 73 62 60 63 54 49 44 32 24 23 33 53 58 25 5 353 351 354 356 358 2 4 4 6 8 8 6 4 360 12 33 54 71 73 69 71 73 80 94 87 92 104 102 126 175 194 235 233 250 274 273 278 299 309 315 333 312 192 266 305
178 182 202 216 206 199 190 188 188 185 188 192 198 199 205 216 211 205 204 211 223 234 262 282 295 74 64 64 74 82 78 40 20 18 14 10 14 29 351 357 353 351 357 358 359 3 6 5 4 7 8 8 7 1 4 27 52 70 80 74 76 80 88 116 112 106 108 116 148 186 166 317 331 26 322 301 283 282 295 298 301 292 279 285 301
191 193 207 221 211 197 192 191 190 188 190 193 197 199 201 209 212 210 207 210 213 214 225 235 232 188 111 110 162 172 132 323 334 350 3 353 341 335 321 344 348 343 347 346 352 360 4 3 0 3 7 8 8 4 357 6 34 59 79 78 69 68 68 68 97 99 108 151 190 188 159 311 45 53 7 334 316 288 287 295 309 311 300 299 304
191 203 215 224 222 205 198 196 192 192 194 195 199 202 203 206 211 214 212 215 216 214 217 217 214 205 203 195 196 213 227 262 297 313 331 340 329 322 313 328 334 329 332 332 342 356 2 1 357 357 3 8 7 3 355 349 1 35 63 71 59 33 15 2 360 100 142 196 208 204 188 184 124 63 15 327 324 311 308 313 325 320 311 309 310
188 196 208 218 230 224 216 205 196 196 198 199 201 204 207 208 211 215 217 220 223 225 229 226 219 221 234 230 219 228 244 256 273 291 305 314 315 314 311 316 316 315 323 329 340 351 358 359 355 353 358 5 7 4 356 343 340 349 17 29 34 18 359 349 334 311 258 262 291 323 213 191 186 156 255 293 320 325 329 333 333 322 316 318 317
195 193 197 203 212 224 233 224 213 206 202 201 203 206 209 211 213 216 219 221 226 232 236 238 241 246 249 251 246 244 251 256 261 269 279 290 301 306 309 312 311 312 323 332 336 341 349 353 352 351 353 1 8 9 2 344 327 321 322 330 342 347 342 339 331 319 315 326 340 345 322 227 236 259 262 280 309 324 328 328 331 325 323 323 322
213 212 205 204 204 208 221 230 235 227 216 208 203 206 211 214 217 219 222 224 228 234 240 247 252 255 256 256 254 251 252 254 261 269 275 281 285 295 304 309 310 315 325 329 330 336 346 350 349 351 354 0 7 11 14 357 321 305 297 296 307 318 326 332 330 328 334 335 331 335 326 295 288 294 296 297 303 314 317 321 326 325 328 326 325
222 227 222 219 219 213 213 219 230 235 233 223 211 209 210 216 221 222 224 227 230 234 241 253 257 260 268 265 259 256 255 255 262 271 278 284 287 293 296 300 305 311 320 325 329 337 347 352 349 351 359 7 9 12 15 13 339 303 292 289 288 296 307 323 330 331 337 331 325 327 320 313 307 305 307 303 300 295 297 315 320 317 326 325 327
233 234 234 235 236 234 232 227 227 230 236 232 224 220 212 215 223 224 225 229 233 236 241 252 264 272 276 274 269 268 269 266 269 276 283 294 301 304 298 300 305 308 316 325 331 339 352 356 350 351 0 10 13 16 15 12 2 327 298 291 288 292 298 308 323 323 324 323 325 324 319 317 312 309 307 305 309 309 301 307 315 317 327 327 330
254 248 243 242 245 248 251 249 241 231 230 228 224 225 216 211 219 225 225 229 233 240 247 253 265 270 267 269 266 264 269 272 275 282 290 295 298 302 300 298 302 305 309 319 330 341 354 354 351 352 357 7 13 16 15 10 6 353 327 306 295 295 298 300 306 310 309 310 314 315 315 314 310 309 307 306 313 319 315 307 311 312 324 330 331
264 264 258 251 249 250 253 256 254 241 234 228 223 223 217 206 211 217 219 224 227 233 241 246 254 254 250 252 248 243 251 265 274 284 291 292 294 296 296 294 298 305 305 316 331 339 349 349 349 348 349 358 2 4 7 7 6 359 349 333 314 303 299 299 299 302 302 301 303 304 305 304 302 301 301 302 305 313 316 311 307 305 320 331 327
263 267 266 260 255 254 254 255 254 248 238 228 223 222 220 209 206 209 210 215 220 222 224 229 237 238 237 236 234 235 239 255 271 281 288 289 292 291 293 297 299 305 307 316 330 336 345 343 339 343 345 346 349 351 355 360 3 1 357 350 339 325 313 305 300 299 299 298 297 298 299 299 298 295 293 295 295 300 307 309 311 313 319 328 329
255 257 258 257 255 254 254 252 250 247 238 225 223 222 213 201 199 203 205 210 213 216 218 221 226 230 232 230 230 232 232 242 259 269 272 271 278 280 284 291 295 303 310 317 326 332 335 328 331 338 339 338 343 347 349 355 359 358 357 355 352 343 333 321 309 302 299 299 299 299 300 300 298 295 292 290 291 293 293 298 305 314 327 350 354
244 244 246 248 247 247 249 252 250 248 237 217 213 210 197 189 188 195 205 212 213 215 219 221 223 225 227 228 229 230 230 231 233 241 243 244 254 262 272 281 287 294 302 305 305 307 301 302 317 319 318 329 340 347 351 355 354 352 353 356 357 352 346 338 323 309 301 299 300 301 301 301 299 297 295 292 291 291 290 290 292 299 320 2 359
243 241 242 240 240 241 240 242 239 238 228 210 202 190 189 192 186 192 202 211 214 215 219 223 224 226 226 226 229 229 227 220 220 232 243 245 243 245 252 263 275 275 272 266 266 274 274 284 296 295 308 319 327 341 346 347 348 350 352 353 354 353 351 345 337 324 311 304 300 298 298 297 298 297 296 295 294 293 293 293 292 295 303 312 322
247 243 241 238 236 234 229 229 226 215 197 192 190 179 191 200 196 200 203 208 215 215 219 226 227 228 228 229 234 234 231 229 233 242 249 250 245 245 250 255 261 258 255 252 254 262 265 271 274 278 302 311 320 332 334 339 344 345 345 346 349 349 350 347 344 340 329 320 308 298 293 291 292 293 294 294 295 295 296 296 297 299 303 305 279
250 244 238 236 233 231 226 223 219 203 183 182 187 189 198 203 201 207 208 209 214 216 221 228 229 231 229 231 237 238 237 237 238 243 250 250 244 244 252 260 261 260 262 259 260 267 268 268 266 271 287 299 319 327 322 332 334 335 341 341 344 349 351 353 352 351 345 337 327 309 295 289 286 285 286 288 290 291 292 293 295 297 297 302 297
248 242 236 234 230 230 227 218 207 196 188 184 189 196 201 204 204 207 210 212 215 218 223 226 227 234 236 240 247 247 247 244 246 254 258 253 245 240 242 251 261 273 277 270 267 270 270 267 266 268 269 286 310 311 302 319 320 326 336 337 344 350 351 353 355 354 349 343 336 327 316 304 294 290 285 283 282 283 285 286 287 289 289 290 293
248 241 234 231 226 222 219 210 198 195 194 190 192 198 202 205 206 207 211 214 216 220 223 223 224 231 236 241 247 250 254 254 255 260 260 256 250 242 236 243 259 277 281 274 271 275 275 270 266 267 263 283 302 290 276 299 311 319 326 334 342 344 344 345 347 348 345 342 337 332 327 322 318 311 301 291 284 281 279 281 282 281 283 283 284
257 247 239 233 223 207 200 197 191 195 198 196 197 197 198 205 207 208 213 216 217 219 223 227 228 231 232 237 242 245 248 247 246 253 264 269 252 239 235 241 256 265 271 275 278 284 286 280 272 276 278 283 293 287 284 293 303 313 320 331 334 331 333 336 342 344 338 336 334 330 329 327 325 320 312 306 301 296 288 284 282 280 281 283 282
258 249 241 238 228 203 191 187 183 190 194 196 199 199 204 209 207 207 215 219 220 223 227 231 232 234 236 238 239 236 231 229 235 250 262 267 250 248 254 250 257 263 269 276 278 279 280 281 282 294 303 290 283 284 286 292 304 317 325 328 324 322 327 330 338 340 334 330 327 325 326 325 322 319 315 312 309 305 299 293 288 286 283 282 281
248 243 237 233 226 201 185 175 169 177 185 188 189 190 201 207 205 212 218 215 212 219 225 226 224 225 229 227 210 195 194 202 214 228 243 260 271 278 277 266 263 267 271 274 274 271 271 278 286 298 299 287 284 287 292 301 314 319 319 316 317 328 333 332 333 330 326 323 320 322 325 323 322 322 319 316 313 307 304 301 296 293 289 284 281
234 232 228 216 204 190 181 172 169 170 168 175 182 185 195 202 208 215 214 206 209 215 213 206 199 190 186 180 162 169 183 196 208 218 236 258 267 269 269 261 260 271 277 280 281 283 291 291 289 290 288 286 290 297 307 314 318 315 309 310 321 332 328 325 323 318 318 319 319 325 329 328 328 328 327 325 323 318 314 311 308 305 302 297 292
220 218 210 200 188 165 156 155 167 172 168 174 186 192 197 200 203 205 200 196 200 197 182 184 192 175 157 151 137 138 160 181 196 205 219 231 235 239 243 240 259 275 274 271 266 268 282 286 284 288 289 292 296 303 307 307 311 311 311 319 321 318 315 314 313 312 318 324 328 335 338 337 338 336 335 334 332 329 324 321 319 318 316 314 311
207 196 183 176 153 138 142 140 142 148 153 169 178 178 181 183 182 179 177 171 162 161 161 170 181 164 146 143 145 145 150 163 173 176 184 193 198 205 209 213 250 267 253 239 240 247 260 265 273 284 291 294 296 298 297 300 309 309 316 325 319 316 317 314 316 326 336 342 350 354 353 353 352 349 347 346 343 340 335 332 329 325 323 321 319
187 167 159 155 144 144 149 146 149 154 157 167 167 159 162 167 166 164 169 168 163 163 167 175 173 166 168 162 161 169 178 186 187 184 189 200 207 204 209 223 242 261 266 265 269 274 271 264 269 279 286 292 295 298 300 305 305 310 358 347 331 340 349 353 358 8 9 8 18 19 15 13 11 10 9 7 4 2 357 354 350 346 341 336 331
176 162 158 156 155 158 164 160 158 159 161 162 157 157 163 169 171 174 179 177 173 175 181 188 186 181 184 183 183 189 195 204 210 213 221 228 224 221 226 236 258 276 284 285 285 283 278 275 279 288 302 309 316 326 335 339 328 67 81 31 345 11 22 31 26 28 37 35 35 35 33 30 26 25 25 22 20 19 18 15 12 9 7 2 357
182 174 169 169 171 171 176 172 156 147 153 160 162 169 178 183 185 185 185 174 166 167 169 174 177 177 178 175 173 169 161 160 160 161 158 149 144 135 127 115 103 90 71 52 49 22 332 343 353 8 21 17 22 27 28 29 44 97 114 140 66 40 37 38 32 30 37 35 29 31 35 31 27 26 24 21 19 18 19 18 17 15 14 12 10
186 180 174 173 175 173 175 175 165 162 168 173 177 184 185 187 186 177 167 154 144 140 138 137 141 145 145 141 137 131 126 122 118 117 115 113 111 109 106 102 99 93 88 84 80 72 60 54 50 46 40 36 39 41 40 41 57 101 127 142 138 74 57 47 37 25 12 3 358 359 9 13 13 14 13 12 10 10 10 10 9 8 8 8 7
184 178 175 174 173 172 173 174 176 177 175 174 176 174 166 159 152 145 140 137 134 132 129 126 126 127 127 126 124 120 117 113 110 108 107 106 105 101 97 93 88 82 77 76 76 71 64 57 48 42 39 36 34 34 35 38 54 91 128 133 118 135 120 41 35 31 359 347 340 339 348 357 359 358 357 359 359 0 2 2 2 0 0 1 0
183 178 177 173 169 168 168 166 166 165 158 153 152 148 145 143 140 137 136 135 132 130 128 124 124 125 123 122 118 114 111 107 104 102 100 96 92 87 82 78 75 73 71 68 68 65 59 53 44 35 30 30 30 30 31 32 44 65 107 135 126 128 145 348 8 36 333 335 336 337 343 349 351 350 350 352 352 353 355 355 355 354 354 354 353
186 181 178 173 171 170 168 165 161 155 149 148 148 146 145 144 143 140 139 138 133 131 130 126 125 123 121 118 113 108 105 100 97 94 90 85 81 77 73 70 68 66 61 56 56 55 52 48 42 35 27 27 30 29 29 27 32 43 60 104 98 37 19 349 352 304 303 329 338 337 341 343 345 347 348 348 348 348 349 349 349 349 350 350 349
186 181 179 175 175 175 172 169 165 161 158 155 151 148 147 146 144 142 142 140 135 134 131 126 125 123 119 115 110 106 101 96 92 87 83 79 74 71 65 61 58 54 50 48 50 51 48 45 42 38 34 34 31 25 29 30 27 30 37 46 40 22 10 355 349 333 322 331 339 340 340 339 341 343 345 344 345 346 347 347 347 346 347 348 349
184 182 182 179 179 178 174 171 169 167 162 155 152 151 150 148 146 144 143 142 138 135 132 129 128 125 121 117 112 108 101 94 89 83 78 72 66 62 56 51 48 48 48 44 44 44 42 42 40 35 36 35 28 24 30 33 25 25 29 29 26 17 6 358 351 343 333 330 336 341 339 338 339 340 342 343 343 343 344 346 345 346 347 348 349
185 184 183 183 182 179 175 171 170 168 162 156 154 153 152 150 149 147 144 143 142 137 135 135 133 129 127 123 118 113 105 97 88 81 75 68 60 55 50 45 42 43 42 36 36 40 38 37 35 31 30 26 22 24 26 25 23 25 26 21 17 13 5 356 350 347 338 332 334 337 336 335 337 339 341 341 341 341 341 343 343 344 347 348 348
187 185 184 183 181 178 174 172 169 165 162 158 153 151 151 150 149 150 148 146 145 142 140 141 137 135 137 130 124 117 109 99 89 81 72 63 55 50 47 40 38 37 33 31 32 34 31 29 29 25 24 23 23 24 23 21 22 19 16 14 9 4 358 351 344 343 339 333 331 332 334 333 333 337 340 339 338 339 340 342 343 344 344 345 346
186 184 183 182 181 177 173 170 166 163 160 157 152 151 152 151 152 154 155 152 151 150 148 147 144 144 145 136 128 120 109 100 89 82 72 64 55 49 44 35 33 32 29 29 28 26 25 23 23 23 23 23 23 21 20 18 16 12 7 4 360 355 351 348 344 340 338 334 327 327 332 332 329 333 338 336 335 338 342 345 345 344 343 343 344
185 183 183 183 180 177 172 168 165 162 159 157 156 155 153 153 155 158 161 160 158 158 156 154 150 150 149 139 130 122 111 103 93 85 73 64 54 44 38 31 29 28 25 24 22 20 21 21 21 22 20 18 17 15 13 10 6 3 360 356 354 352 349 346 344 340 337 334 328 327 332 331 328 331 335 335 336 340 343 346 346 342 342 341 339